OPS 7218 (TRANSIT 16) 1 02807U 67048A 26038.28367926 .00000162 00000+0 23603-3 0 9999 2 02807 89.6788 352.1520 0019000 317.4646 158.2251 13.50736794890392 OPS 4947 (TRANSIT 17) 1 02965U 67092A 26037.99728145 .00000161 00000+0 21979-3 0 9997 2 02965 89.2513 20.1407 0049619 73.1797 347.8767 13.53469590878582 OPS 7034 (TRANSIT 18) 1 03133U 68012A 26038.20505029 .00000129 00000+0 18063-3 0 9991 2 03133 90.0247 273.7978 0074257 8.4137 110.2085 13.51582227576815 NNSS 19 (TRANSIT 19) 1 04507U 70067A 26038.04929776 .00000177 00000+0 23218-3 0 9992 2 04507 90.0027 234.5650 0173310 129.4594 232.2037 13.51329990729829 NNSS 20 (TRANSIT 20) 1 06909U 73081A 26038.08366592 .00000213 00000+0 20943-3 0 9997 2 06909 89.8521 254.2030 0152713 269.3625 89.0039 13.71463497811337 TRANSAT 1 10457U 77106A 26038.16007978 .00000074 00000+0 10193-3 0 9992 2 10457 89.6415 76.5814 0026517 34.8291 29.1719 13.48953593375049 NOVA 1 1 12458U 81044A 26038.21625369 .00000028 00000+0 45170-4 0 9990 2 12458 89.8463 90.5733 0012619 313.3459 113.4675 13.23284816159330 NOVA 3 1 15362U 84110A 26038.17703748 .00000071 00000+0 14826-3 0 9998 2 15362 90.1156 81.1826 0032010 170.5235 254.9231 13.23052577994458 OSCAR 30 1 15935U 85066A 26038.29519144 .00000105 00000+0 17728-3 0 9995 2 15935 90.1600 100.7616 0165750 284.2315 194.7064 13.36089805972081 OSCAR 24 1 15936U 85066B 26038.19837905 .00000121 00000+0 20572-3 0 9992 2 15936 90.1731 93.2907 0166817 291.1001 128.8619 13.35947434973973 POLAR BEAR 1 17070U 86088A 26037.93999987 .00000123 00000+0 11708-3 0 9991 2 17070 89.6219 181.5310 0037724 312.8674 164.7390 13.75263886967512 OSCAR 27 1 18361U 87080A 26038.16254863 .00000107 00000+0 16146-3 0 9994 2 18361 90.3675 81.3656 0105552 63.6417 297.5523 13.44919249883159 OSCAR 29 1 18362U 87080B 26038.19339976 .00000092 00000+0 13645-3 0 9991 2 18362 90.3685 81.8303 0107410 86.3118 343.2419 13.44459889882689 OSCAR 23 1 19070U 88033A 26037.96641354 .00000109 00000+0 20171-3 0 9998 2 19070 90.3237 18.1341 0190293 24.5956 34.2523 13.27797984829999 OSCAR 32 1 19071U 88033B 26038.01309298 .00000115 00000+0 21575-3 0 9990 2 19071 90.3242 18.2705 0188297 11.3375 54.4722 13.27963657830125 NOVA 2 1 19223U 88052A 26038.10937461 .00000037 00000+0 67872-4 0 9993 2 19223 89.9802 78.1852 0029393 215.1682 210.8685 13.22943794816938 OSCAR 25 1 19419U 88074A 26038.01302499 .00000125 00000+0 19667-3 0 9997 2 19419 90.0364 20.4251 0098096 85.8274 341.0481 13.42634948833951 OSCAR 31 1 19420U 88074B 26037.96169150 .00000090 00000+0 13722-3 0 9994 2 19420 90.0381 20.7841 0096296 80.3366 334.2253 13.42592463834050